Location: Brienzwiler
(46.7508°N, 8.1014°E)
Time: 07:53:47
(UTC+00:00)

Cosmos 1892 - Pass Details

Date: 05 July 2020
Orbit: 505 x 523 km, 82.5° (Epoch: 05 August)

Event Time Altitude Azimuth Distance (km) Brightness Sun altitude
Exits shadow 22:42:05 21° 242° (WSW) 1,192 4.4 -19.7°
Maximum altitude 22:43:47 30° 286° (WNW) 937 4.2 -19.7°
Drops below altitude 10° 22:47:11 10° 349° (N) 1,741 6.6 -19.8°
Sets 22:49:31 0° 0° (N) 2,636 7.8 -19.9°
